This demonstration page uses our WeatherBlox Daily Observations layout. Learn more.

Left ArrowRight Arrow

39.01783, -85.05884

Hourly Observations for September 8, 2018

Temp ( °F °C ) Dew Point ( °F °C ) Humidity (%) Winds ( mph kmh ) Pressure ( in mb ) Visibility ( mi km ) Precip ( " mm )
12:07 am 00:07 Cloudy 72 22.2 70 21.1 94 94 NE 12 19 30.06 1018 10 16 N/A
12:52 am 00:52 Cloudy 72 22.2 70 21.1 94 94 ENE 12 19 30.05 1018 9 14 N/A
1:52 am 01:52 Cloudy 72 22.2 69 20.6 91 91 NE 13 20 30.03 1017 9 14 N/A
2:52 am 02:52 Cloudy 71 21.7 69 20.6 94 94 ENE 15 24 30.01 1016 9 14 N/A
3:52 am 03:52 Cloudy 71 21.7 69 20.6 94 94 E 14 22 29.99 1016 8 13 N/A
4:23 am 04:23 Cloudy with Nearby Thunderstorms 71 21.7 69 20.6 94 94 ENE 8 13 30.00 1016 7 11 N/A
4:28 am 04:28 Cloudy with Thunderstorms 71 21.7 69 20.6 94 94 W 16 26 30.03 1017 6 10 N/A
4:33 am 04:33 Cloudy with Strong Thunderstorms 70 21.1 69 20.6 97 97 W 17 28 30.03 1017 2 2 0.03 0.76
4:36 am 04:36 Cloudy with Strong Thunderstorms 70 21.1 69 20.6 97 97 VRB 7 11 30.03 1017 1 1 0.14 3.56
4:40 am 04:40 Cloudy with Nearby Thunderstorms 69 20.6 69 20.6 100 100 N 5 7 30.00 1016 1 1 0.42 10.67
4:42 am 04:42 Cloudy with Nearby Thunderstorms 69 20.6 69 20.6 100 100 N N/A 30.00 1016 1 1 0.45 11.43
4:46 am 04:46 Cloudy with Nearby Thunderstorms 70 21 70 21 100 100 N N/A 30.00 1016 1 2 0.48 12.19
4:52 am 04:52 Cloudy with Nearby Thunderstorms 69 20.6 69 20.6 100 100 N N/A 30.01 1016 1 2 0.54 13.72
4:56 am 04:56 Cloudy with Strong Thunderstorms 69 20.6 69 20.6 100 100 N N/A 30.00 1016 1 2 0.04 1.02
5:04 am 05:04 Cloudy with Nearby Thunderstorms 69 20.6 69 20.6 100 100 S 6 9 30.00 1016 2 3 0.09 2.29
5:11 am 05:11 Cloudy with Nearby Thunderstorms 68 20 68 20 100 100 N N/A 30.00 1016 3 4 0.12 3.05
5:20 am 05:20 Cloudy with Nearby Thunderstorms 68 20 68 20 100 100 N 3 6 30.00 1016 3 5 0.15 3.81
5:28 am 05:28 Cloudy with Rain 70 21 70 21 100 100 NNW 5 7 30.00 1016 4 6 0.17 4.32
5:45 am 05:45 Cloudy with Rain 69 20.6 69 20.6 100 100 N 5 7 30.00 1016 4 6 0.21 5.33
5:52 am 05:52 Cloudy with Light Rain 69 20.6 69 20.6 100 100 N 7 11 29.99 1016 5 8 0.22 5.59
6:31 am 06:31 Cloudy with Light Rain 69 20.6 69 20.6 100 100 NE 12 19 29.97 1015 8 13 0.04 1.02
6:52 am 06:52 Cloudy with Light Rain 69 20.6 69 20.6 100 100 NNE 10 17 29.98 1015 10 16 0.04 1.02
7:52 am 07:52 Cloudy 69 20.6 66 18.9 90 90 NE 14 22 29.99 1016 10 16 N/A
8:52 am 08:52 Cloudy 69 20.6 69 20.6 100 100 ENE 20 31 30.00 1016 10 16 N/A
9:52 am 09:52 Cloudy 68 20 66 18.9 93 93 NE 17 28 30.00 1016 10 16 N/A
10:52 am 10:52 Cloudy with Light Rain 67 19.4 66 18.9 97 97 ENE 17 28 30.00 1016 5 8 0.07 1.78
11:35 am 11:35 Cloudy with Heavy Rain 66 18.9 65 18.3 96 96 ENE 15 24 30.00 1016 1 2 0.11 2.79
11:52 am 11:52 Cloudy with Heavy Rain 66 18.9 66 18.9 100 100 NE 13 20 30.01 1016 1 2 0.23 5.84
12:52 pm 12:52 Cloudy with Light Rain 66 18.9 65 18.3 96 96 ENE 25 41 29.99 1016 7 11 0.41 10.41
1:33 pm 13:33 Cloudy with Heavy Rain 66 18.9 65 18.3 96 96 ENE 13 20 30.00 1016 2 2 0.02 0.51
1:52 pm 13:52 Cloudy with Heavy Rain 65 18.3 65 18.3 100 100 ENE 15 24 30.00 1016 1 2 0.40 10.16
2:26 pm 14:26 Cloudy with Light Rain 66 18.9 66 18.9 100 100 ENE 15 24 29.97 1015 6 10 0.02 0.51
2:42 pm 14:42 Cloudy with Light Rain 65 18.3 65 18.3 100 100 ENE 21 33 29.97 1015 8 13 0.03 0.76
2:52 pm 14:52 Cloudy with Light Rain 65 18.3 64 17.8 97 97 NE 14 22 29.98 1015 7 11 0.03 0.76
3:52 pm 15:52 Cloudy with Light Rain 65 18.3 64 17.8 97 97 NE 20 31 29.96 1015 8 13 0.01 0.25
4:52 pm 16:52 Cloudy with Heavy Rain 64 17.8 63 17.2 96 96 ENE 17 28 29.96 1015 3 5 0.07 1.78
5:52 pm 17:52 Cloudy with Light Rain 64 17.8 63 17.2 96 96 ENE 20 31 29.93 1013 6 10 0.09 2.29
6:11 pm 18:11 Cloudy with Light Rain 64 17.8 63 17.2 96 96 ENE 26 43 29.91 1013 8 13 0.01 0.25
6:40 pm 18:40 Cloudy with Rain 64 17.8 62 16.7 93 93 ENE 23 37 29.91 1013 3 5 0.05 1.27
6:52 pm 18:52 Cloudy with Rain 64 17.8 63 17.2 96 96 ENE 25 41 29.91 1013 3 5 0.07 1.78
7:28 pm 19:28 Cloudy with Rain 63 17.2 63 17.2 100 100 ENE 17 28 29.91 1013 3 5 0.11 2.79
7:52 pm 19:52 Cloudy with Heavy Rain 63 17.2 63 17.2 100 100 E 24 39 29.92 1013 3 5 0.20 5.08
8:11 pm 20:11 Cloudy with Heavy Rain 63 17.2 62 16.7 97 97 ENE 25 41 29.88 1012 3 5 0.09 2.29
8:34 pm 20:34 Cloudy with Rain 63 17.2 62 16.7 97 97 ENE 26 43 29.88 1012 5 8 0.13 3.30
8:52 pm 20:52 Mostly Cloudy with Rain 63 17.2 62 16.7 97 97 ENE 28 44 29.89 1012 7 11 0.16 4.06
8:58 pm 20:58 Cloudy with Rain 63 17.2 63 17.2 100 100 ENE 26 43 29.88 1012 7 11 0.01 0.25
9:52 pm 21:52 Cloudy with Heavy Rain 63 17.2 62 16.7 97 97 E 14 22 29.90 1012 3 5 0.14 3.56
10:18 pm 22:18 Cloudy with Heavy Rain 62 16.7 62 16.7 100 100 ENE 16 26 29.91 1013 3 5 0.14 3.56
10:23 pm 22:23 Cloudy with Heavy Rain 62 16.7 62 16.7 100 100 E 18 30 29.91 1013 3 5 0.16 4.06
10:52 pm 22:52 Cloudy with Heavy Rain 62 16.7 62 16.7 100 100 E 14 22 29.88 1012 3 5 0.28 7.11
11:05 pm 23:05 Cloudy with Heavy Rain 62 16.7 62 16.7 100 100 ENE 14 22 29.85 1011 3 4 0.08 2.03
11:42 pm 23:42 Cloudy with Heavy Rain 62 16.7 61 16.1 96 96 E 17 28 29.85 1011 3 4 0.33 8.38
11:52 pm 23:52 Cloudy with Heavy Rain 62 16.7 61 16.1 96 96 S 10 17 29.90 1013 3 4 0.44 11.18
11:54 pm 23:54 Cloudy with Heavy Rain 62 16.7 61 16.1 96 96 S 12 19 29.94 1014 2 3 0.03 0.76

Powered by AerisWeather